When you browse on this site, cookies collect data to enhance your experience and personalize the content and advertising you see.
Visit our Privacy Policy to learn more. By continuing to use the site, you agree to this use of cookies and data.
  • In Latvia
  • List of Countries
  • For 7 days
  • Water Temperature
  • Satellite Maps
  • Weather Map
  • Weather Widgets
  • user-avatar
    Login

    Hourly Weather Santiago del Estero

    Today, 21 July, Sunday

    Time Temperature Precipitation Wind Pressure Humidity
    00:00 +21°C° 0 mm 3 mps 732 mmHg 70%
    01:00 +21°C° 0 mm 3 mps 731 mmHg 72%
    02:00 +21°C° 0 mm 3 mps 731 mmHg 74%
    03:00 +21°C° 0 mm 4 mps 730 mmHg 71%
    04:00 +22°C° 0 mm 4 mps 730 mmHg 69%
    05:00 +22°C° 0 mm 5 mps 729 mmHg 67%
    06:00 +22°C° 0 mm 5 mps 730 mmHg 66%
    07:00 +23°C° 0 mm 5 mps 730 mmHg 64%
    08:00 +23°C° 0 mm 5 mps 730 mmHg 63%
    09:00 +26°C° 0 mm 5 mps 731 mmHg 56%
    10:00 +29°C° 0 mm 6 mps 731 mmHg 49%
    11:00 +32°C° 0 mm 6 mps 731 mmHg 42%
    12:00 +33°C° 0 mm 6 mps 731 mmHg 39%
    13:00 +34°C° 0 mm 5 mps 730 mmHg 36%
    14:00 +35°C° 0 mm 5 mps 730 mmHg 32%
    15:00 +34°C° 0 mm 3 mps 730 mmHg 35%
    16:00 +32°C° 0 mm 2 mps 730 mmHg 38%
    17:00 +29°C° 0 mm 0 mps 731 mmHg 41%
    18:00 +30°C° 0 mm 1 mps 731 mmHg 43%
    19:00 +29°C° 0 mm 2 mps 732 mmHg 45%
    20:00 +28°C° 0 mm 3 mps 733 mmHg 47%
    21:00 +25°C° 0 mm 5 mps 734 mmHg 51%
    22:00 +22°C° 0 mm 7 mps 735 mmHg 55%
    23:00 +20°C° 0 mm 8 mps 736 mmHg 58%

    Tomorrow, 22 July, Monday

    Time Temperature Precipitation Wind Pressure Humidity
    00:00 +18°C° 0 mm 9 mps 737 mmHg 52%
    01:00 +17°C° 0 mm 9 mps 737 mmHg 46%
    02:00 +14°C° 0 mm 10 mps 738 mmHg 41%
    03:00 +15°C° 0 mm 9 mps 739 mmHg 36%
    04:00 +15°C° 0 mm 9 mps 741 mmHg 32%
    05:00 +15°C° 0 mm 8 mps 742 mmHg 27%
    06:00 +15°C° 0 mm 8 mps 743 mmHg 26%
    07:00 +15°C° 0 mm 7 mps 744 mmHg 24%
    08:00 +15°C° 0 mm 7 mps 745 mmHg 22%
    09:00 +15°C° 0 mm 7 mps 745 mmHg 22%
    10:00 +15°C° 0 mm 7 mps 746 mmHg 21%
    11:00 +15°C° 0 mm 7 mps 746 mmHg 21%
    12:00 +16°C° 0 mm 6 mps 746 mmHg 21%
    13:00 +16°C° 0 mm 6 mps 745 mmHg 21%
    14:00 +16°C° 0 mm 5 mps 745 mmHg 20%
    15:00 +15°C° 0 mm 5 mps 745 mmHg 21%
    16:00 +15°C° 0 mm 5 mps 745 mmHg 21%
    17:00 +15°C° 0 mm 5 mps 745 mmHg 21%
    18:00 +14°C° 0 mm 5 mps 745 mmHg 22%
    19:00 +14°C° 0 mm 5 mps 746 mmHg 23%
    20:00 +13°C° 0 mm 4 mps 747 mmHg 24%
    21:00 +12°C° 0 mm 4 mps 747 mmHg 25%
    22:00 +12°C° 0 mm 4 mps 747 mmHg 25%
    23:00 +12°C° 0 mm 3 mps 748 mmHg 26%

    Day after tomorrow, 23 July, Tuesday

    Time Temperature Precipitation Wind Pressure Humidity
    00:00 +12°C° 0 mm 3 mps 748 mmHg 26%
    01:00 +12°C° 0 mm 3 mps 748 mmHg 26%
    02:00 +12°C° 0 mm 3 mps 748 mmHg 26%
    03:00 +12°C° 0 mm 4 mps 748 mmHg 27%
    04:00 +12°C° 0 mm 4 mps 748 mmHg 27%
    05:00 +12°C° 0 mm 4 mps 748 mmHg 28%
    06:00 +11°C° 0 mm 4 mps 748 mmHg 29%
    07:00 +11°C° 0 mm 4 mps 749 mmHg 30%
    08:00 +10°C° 0 mm 5 mps 750 mmHg 31%
    09:00 +12°C° 0 mm 4 mps 750 mmHg 31%
    10:00 +12°C° 0 mm 4 mps 750 mmHg 31%
    11:00 +12°C° 0 mm 4 mps 750 mmHg 30%
    12:00 +13°C° 0 mm 4 mps 750 mmHg 29%
    13:00 +14°C° 0 mm 5 mps 749 mmHg 27%
    14:00 +15°C° 0 mm 5 mps 749 mmHg 25%
    15:00 +14°C° 0 mm 5 mps 749 mmHg 27%
    16:00 +14°C° 0 mm 5 mps 749 mmHg 29%
    17:00 +13°C° 0 mm 5 mps 749 mmHg 31%
    18:00 +12°C° 0 mm 4 mps 750 mmHg 34%
    19:00 +10°C° 0 mm 3 mps 750 mmHg 38%
    20:00 +8°C° 0 mm 2 mps 751 mmHg 41%
    21:00 +9°C° 0 mm 1 mps 752 mmHg 44%
    22:00 +8°C° 0 mm 1 mps 752 mmHg 46%
    23:00 +7°C° 0 mm 1 mps 753 mmHg 48%

    24 July, Wednesday

    Time Temperature Precipitation Wind Pressure Humidity
    00:00 +7°C° 0 mm 1 mps 753 mmHg 49%
    01:00 +6°C° 0 mm 2 mps 753 mmHg 49%
    02:00 +6°C° 0 mm 2 mps 753 mmHg 49%
    03:00 +6°C° 0 mm 2 mps 753 mmHg 49%
    04:00 +6°C° 0 mm 2 mps 753 mmHg 48%
    05:00 +5°C° 0 mm 3 mps 753 mmHg 48%
    06:00 +7°C° 0 mm 3 mps 754 mmHg 47%
    07:00 +7°C° 0 mm 2 mps 754 mmHg 47%
    08:00 +7°C° 0 mm 2 mps 755 mmHg 47%
    09:00 +9°C° 0 mm 2 mps 755 mmHg 42%
    10:00 +12°C° 0 mm 2 mps 755 mmHg 36%
    11:00 +15°C° 0 mm 2 mps 756 mmHg 31%
    12:00 +16°C° 0 mm 2 mps 755 mmHg 28%
    13:00 +17°C° 0 mm 2 mps 754 mmHg 26%
    14:00 +18°C° 0 mm 2 mps 754 mmHg 23%
    15:00 +17°C° 0 mm 3 mps 754 mmHg 24%
    16:00 +17°C° 0 mm 3 mps 754 mmHg 25%
    17:00 +17°C° 0 mm 3 mps 753 mmHg 26%
    18:00 +14°C° 0 mm 3 mps 754 mmHg 29%
    19:00 +13°C° 0 mm 2 mps 755 mmHg 33%
    20:00 +10°C° 0 mm 2 mps 755 mmHg 36%
    21:00 +10°C° 0 mm 2 mps 755 mmHg 38%
    22:00 +9°C° 0 mm 2 mps 755 mmHg 40%
    23:00 +8°C° 0 mm 2 mps 755 mmHg 42%

    25 July, Thursday

    Time Temperature Precipitation Wind Pressure Humidity
    00:00 +8°C° 0 mm 2 mps 755 mmHg 45%
    01:00 +8°C° 0 mm 1 mps 755 mmHg 48%
    02:00 +7°C° 0 mm 1 mps 755 mmHg 51%
    03:00 +6°C° 0 mm 1 mps 755 mmHg 53%
    04:00 +6°C° 0 mm 1 mps 754 mmHg 55%
    05:00 +5°C° 0 mm 1 mps 754 mmHg 57%
    06:00 +6°C° 0 mm 1 mps 754 mmHg 56%
    07:00 +7°C° 0 mm 1 mps 755 mmHg 55%
    08:00 +8°C° 0 mm 1 mps 755 mmHg 53%
    09:00 +9°C° 0 mm 2 mps 755 mmHg 47%
    10:00 +12°C° 0 mm 2 mps 755 mmHg 41%
    11:00 +13°C° 0 mm 3 mps 754 mmHg 35%
    12:00 +14°C° 0 mm 3 mps 754 mmHg 32%
    13:00 +16°C° 0 mm 3 mps 753 mmHg 29%
    14:00 +17°C° 0 mm 3 mps 752 mmHg 25%
    15:00 +17°C° 0 mm 3 mps 752 mmHg 26%
    16:00 +17°C° 0 mm 3 mps 751 mmHg 27%
    17:00 +17°C° 0 mm 2 mps 751 mmHg 27%
    18:00 +15°C° 0 mm 2 mps 751 mmHg 31%
    19:00 +12°C° 0 mm 3 mps 751 mmHg 35%
    20:00 +10°C° 0 mm 3 mps 752 mmHg 38%
    21:00 +9°C° 0 mm 3 mps 752 mmHg 41%
    22:00 +9°C° 0 mm 3 mps 752 mmHg 44%
    23:00 +8°C° 0 mm 3 mps 752 mmHg 47%

    26 July, Friday

    Time Temperature Precipitation Wind Pressure Humidity
    00:00 +7°C° 0 mm 2 mps 752 mmHg 49%
    01:00 +7°C° 0 mm 2 mps 752 mmHg 52%
    02:00 +6°C° 0 mm 2 mps 751 mmHg 55%
    03:00 +5°C° 0 mm 2 mps 751 mmHg 57%
    04:00 +5°C° 0 mm 2 mps 751 mmHg 59%
    05:00 +5°C° 0 mm 1 mps 751 mmHg 61%
    06:00 +6°C° 0 mm 1 mps 751 mmHg 59%
    07:00 +6°C° 0 mm 2 mps 752 mmHg 57%
    08:00 +6°C° 0 mm 2 mps 752 mmHg 56%
    09:00 +8°C° 0 mm 2 mps 752 mmHg 49%
    10:00 +12°C° 0 mm 2 mps 752 mmHg 42%
    11:00 +13°C° 0 mm 3 mps 752 mmHg 35%
    12:00 +14°C° 0 mm 3 mps 751 mmHg 33%
    13:00 +17°C° 0 mm 3 mps 750 mmHg 30%
    14:00 +18°C° 0 mm 3 mps 749 mmHg 27%
    15:00 +18°C° 0 mm 3 mps 749 mmHg 28%
    16:00 +18°C° 0 mm 3 mps 749 mmHg 29%
    17:00 +18°C° 0 mm 3 mps 748 mmHg 29%
    18:00 +16°C° 0 mm 3 mps 749 mmHg 33%
    19:00 +13°C° 0 mm 3 mps 749 mmHg 37%
    20:00 +11°C° 0 mm 3 mps 749 mmHg 41%
    21:00 +10°C° 0 mm 3 mps 749 mmHg 43%
    22:00 +10°C° 0 mm 3 mps 749 mmHg 44%
    23:00 +9°C° 0 mm 3 mps 749 mmHg 46%
    Show more